This is the latest recevied weather packets stored in our database for station/object JF7BTK-10. If no packets are shown the sender has not sent any weather packets the latest 10 day(s).
| Time | Temp. | Humidity | Pressure | Rain* | Wind** | Luminosity | Snow |
|---|---|---|---|---|---|---|---|
| 1777621953 | 12.78° C | 96% | 990.6 hPa | 1.02 mm | - | - | - |
| 1777621652 | 12.78° C | 95% | 991 hPa | 0.76 mm | - | - | - |
| 1777621432 | 12.78° C | 95% | 991.2 hPa | 1.02 mm | - | - | - |
| 1777621051 | 12.78° C | 95% | 991.5 hPa | 1.27 mm | - | - | - |
| 1777620751 | 12.78° C | 95% | 991.6 hPa | 1.27 mm | - | - | - |
| 1777620531 | 12.78° C | 95% | 991.7 hPa | 1.27 mm | - | - | - |
| 1777620452 | 12.78° C | 95% | 991.8 hPa | 1.27 mm | - | - | - |
| 1777620151 | 12.78° C | 95% | 991.8 hPa | 1.27 mm | - | - | - |
| 1777619851 | 12.78° C | 95% | 991.9 hPa | 1.78 mm | - | - | - |
| 1777619631 | 12.78° C | 95% | 992.2 hPa | 1.78 mm | - | - | - |
| 1777619552 | 12.78° C | 95% | 992.1 hPa | 1.78 mm | - | - | - |
| 1777618730 | 12.78° C | 95% | 992.4 hPa | 1.78 mm | - | - | - |
| 1777618351 | 12.78° C | 95% | 992.7 hPa | 1.78 mm | - | - | - |
| 1777618053 | 12.78° C | 95% | 993 hPa | 1.78 mm | - | - | - |
| 1777617831 | 12.78° C | 95% | 992.9 hPa | 1.27 mm | - | - | - |
| 1777616932 | 12.78° C | 94% | 993.3 hPa | 1.02 mm | - | - | - |
| 1777616851 | 12.78° C | 94% | 993.3 hPa | 1.02 mm | - | - | - |
| 1777616032 | 12.78° C | 93% | 993.4 hPa | 1.02 mm | - | - | - |
| 1777615351 | 12.78° C | 93% | 993.9 hPa | 0.76 mm | - | - | - |
| 1777615131 | 13.33° C | 93% | 993.8 hPa | 0.76 mm | - | - | - |
| 1777614752 | 13.33° C | 93% | 993.9 hPa | 0.76 mm | - | - | - |
| 1777614231 | 13.33° C | 92% | 993.7 hPa | 0.76 mm | - | - | - |
| 1777613331 | 13.33° C | 92% | 994.3 hPa | 0.76 mm | - | - | - |
| 1777612952 | 13.33° C | 91% | 994.3 hPa | 0.76 mm | - | - | - |
| 1777612651 | 13.33° C | 91% | 994.5 hPa | 0.51 mm | - | - | - |
* Rain latest hour (hover to see other rain measurements)
** Current wind speed in m/s (hover to see current wind gust speed)